Location: Qazi Observatory
(41.6337°N, 88.1517°W)
Time: 20:03:03
(UTC-05:00)

Amateur Radio Satellites - All Passes

Search period start: 25 October 2014 19:33
Search period end: 26 October 2014 19:33
Location: Qazi Observatory, 41.6337°N, 88.1517°W

Satellite Date Start Highest point End Downlink Frequencies (MHz)
Time Altitude Azimuth
KITSAT 1 25 Oct 19:48:14 19:55:12 30° 41° (NE) 20:02:08 435.175 FM
SO-67 25 Oct 20:04:14 20:06:38 18° 266° (W) 20:09:03 435.3500 MHz FM
RS-15 25 Oct 20:08:20 20:13:09 14° 96° (E) 20:17:57 29.354 - 29.394 USB, Beacon 29.352 USB
SO-50 25 Oct 20:25:05 20:28:52 22° 43° (NE) 20:32:41 436.795 FM
STRAND 1 25 Oct 20:42:58 20:47:34 34° 293° (WNW) 20:52:09 ?
HO-68 25 Oct 20:45:14 20:52:21 75° 71° (ENE) 20:59:32 435.675 MHz FM
ZACube-1 25 Oct 21:03:54 21:06:13 14° 63° (ENE) 21:08:32 437.345 MHz
UKube-1 25 Oct 21:05:20 21:09:15 34° 69° (ENE) 21:13:12 145.840 MHz, 145.915 MHz
KITSAT 1 25 Oct 21:43:18 21:51:21 75° 243° (WSW) 21:59:22 435.175 FM
UOSAT-12 25 Oct 21:44:06 21:46:49 15° 37° (NE) 21:49:30 437.025 FM, 437.400 FM
Oscar 11 25 Oct 21:45:31 21:49:50 83° 76° (ENE) 21:54:11 145.825 FM, Beacon 2401.500 USB
FUNcube-1 25 Oct 21:46:13 21:50:23 36° 71° (ENE) 21:54:31 145.950 - 145.970 MHz USB
SO-50 25 Oct 22:05:01 22:09:47 58° 241° (WSW) 22:14:34 436.795 FM
RS-15 25 Oct 22:12:25 22:23:18 70° 116° (ESE) 22:34:07 29.354 - 29.394 USB, Beacon 29.352 USB
HO-68 25 Oct 22:35:41 22:40:43 20° 269° (W) 22:45:47 435.675 MHz FM
ZACube-1 25 Oct 22:37:33 22:42:06 64° 259° (W) 22:46:37 437.345 MHz
UKube-1 25 Oct 22:42:09 22:45:30 22° 265° (W) 22:48:53 145.840 MHz, 145.915 MHz
MaSat-1 25 Oct 23:13:10 23:16:59 36° 111° (ESE) 23:20:29 437.345 MHz
UOSAT-12 25 Oct 23:22:57 23:27:42 85° 57° (ENE) 23:32:21 437.025 FM, 437.400 FM
FUNcube-1 25 Oct 23:23:16 23:26:50 22° 266° (W) 23:30:22 145.950 - 145.970 MHz USB
KITSAT 1 25 Oct 23:41:46 23:45:21 14° 261° (W) 23:48:57 435.175 FM
RS-15 26 Oct 00:26:25 00:36:27 40° 321° (NW) 00:46:35 29.354 - 29.394 USB, Beacon 29.352 USB
Oscar 10/S400 26 Oct 00:30:32 01:33:43 26° 236° (SW) 04:43:40 145.825 - 145.975 CW/USB, Beacon 145.810 USB
MaSat-1 26 Oct 00:49:45 00:52:38 19° 304° (NW) 00:55:20 437.345 MHz
UOSAT-12 26 Oct 01:05:53 01:07:07 11° 254° (WSW) 01:08:19 437.025 FM, 437.400 FM
JAS-1B 26 Oct 01:13:14 01:18:05 19° 93° (E) 01:23:25 435.800 - 435.900 CW/SSB
Oscar 19 26 Oct 01:24:52 01:28:24 19° 92° (E) 01:31:55 437.125 CW, 437.150 USB
AO-27 26 Oct 01:47:05 01:48:57 12° 89° (E) 01:50:49 436.795 MHz FM
AO-Echo 26 Oct 01:55:55 01:59:52 21° 92° (E) 02:03:47 ?
Oscar 16 26 Oct 02:09:47 02:14:47 51° 100° (E) 02:19:44 437.025 USB, Beacon 2401.1428
Uribyol 2 26 Oct 02:31:49 02:36:33 34° 97° (E) 02:41:14 436.500 FM
PCSat 26 Oct 02:35:37 02:39:09 18° 105° (ESE) 02:42:43 145.825 MHz
ITAMSAT 1 26 Oct 02:38:06 02:42:56 37° 98° (E) 02:47:43 435.822 SSB
RS-15 26 Oct 02:45:19 02:53:05 21° 355° (N) 03:00:59 29.354 - 29.394 USB, Beacon 29.352 USB
JAS-1B 26 Oct 03:02:20 03:09:02 78° 287° (WNW) 03:17:07 435.800 - 435.900 CW/SSB
Oscar 19 26 Oct 03:03:05 03:08:03 53° 289° (WNW) 03:13:00 437.125 CW, 437.150 USB
Gurwin Techsat 1B 26 Oct 03:05:17 03:10:10 36° 97° (E) 03:15:01 435.225 FM
TMSAT-1 26 Oct 03:15:45 03:20:32 33° 96° (E) 03:25:17 436.925 FM
AO-7 26 Oct 03:23:22 03:25:59 12° 86° (E) 03:28:35 29.400 - 29.500 MHz
AO-27 26 Oct 03:23:50 03:29:05 82° 285° (WNW) 03:34:18 436.795 MHz FM
AO-Echo 26 Oct 03:33:44 03:38:53 51° 289° (WNW) 03:44:00 ?
Oscar 16 26 Oct 03:50:02 03:53:45 21° 297° (WNW) 03:57:28 437.025 USB, Beacon 2401.1428
Sapphire 26 Oct 03:54:10 03:59:34 80° 118° (ESE) 04:05:01 437.095 MHz 1200 baud AX-25 AFSK
Uribyol 2 26 Oct 04:11:25 04:15:54 30° 294° (WNW) 04:20:22 436.500 FM
PCSat 26 Oct 04:16:39 04:22:00 64° 302° (WNW) 04:27:25 145.825 MHz
ITAMSAT 1 26 Oct 04:17:52 04:22:16 28° 294° (WNW) 04:26:39 435.822 SSB
OPAL 26 Oct 04:33:19 04:38:06 41° 67° (ENE) 04:42:51 ?
Gurwin Techsat 1B 26 Oct 04:45:27 04:50:01 30° 294° (WNW) 04:54:33 435.225 FM
JAS-1B 26 Oct 04:55:29 04:58:54 15° 303° (WNW) 05:02:35 435.800 - 435.900 CW/SSB
TMSAT-1 26 Oct 04:55:44 05:00:23 32° 293° (WNW) 05:05:00 436.925 FM
RS-15 26 Oct 05:00:52 05:10:24 31° 31° (NNE) 05:20:10 29.354 - 29.394 USB, Beacon 29.352 USB
JAS-2 26 Oct 05:01:56 05:07:37 21° 89° (E) 05:13:14 435.800 - 435.900 CW/SSB, 435.910 FM
AO-27 26 Oct 05:06:07 05:07:44 11° 303° (WNW) 05:09:22 436.795 MHz FM
AO-7 26 Oct 05:11:53 05:20:12 68° 105° (ESE) 05:28:29 29.400 - 29.500 MHz
Uosat F 26 Oct 05:19:42 05:24:46 71° 103° (ESE) 05:29:47 435.120 FM
Hamsat 26 Oct 05:38:14 05:40:33 14° 91° (E) 05:42:52 145.90 MHz
Sapphire 26 Oct 05:39:53 05:43:39 19° 317° (NW) 05:47:26 437.095 MHz 1200 baud AX-25 AFSK
PCSat 26 Oct 06:04:07 06:06:32 13° 323° (NW) 06:08:58 145.825 MHz
OPAL 26 Oct 06:12:55 06:17:05 25° 263° (W) 06:21:14 ?
STRAND 1 26 Oct 06:19:54 06:24:44 44° 70° (ENE) 06:29:37 ?
Saudisat 1A 26 Oct 06:25:01 06:27:58 18° 111° (ESE) 06:30:56 436.775 MHz
JAS-2 26 Oct 06:45:28 06:53:18 81° 286° (WNW) 07:01:05 435.800 - 435.900 CW/SSB, 435.910 FM
Uosat F 26 Oct 07:00:05 07:02:57 15° 300° (WNW) 07:05:48 435.120 FM
AO-7 26 Oct 07:05:32 07:12:21 30° 304° (NW) 07:19:11 29.400 - 29.500 MHz
Hamsat 26 Oct 07:12:43 07:16:45 47° 287° (WNW) 07:20:48 145.90 MHz
RS-15 26 Oct 07:13:19 07:24:34 85° 57° (ENE) 07:36:17 29.354 - 29.394 USB, Beacon 29.352 USB
SO-67 26 Oct 07:26:19 07:29:19 27° 96° (E) 07:32:18 435.3500 MHz FM
PANSAT 26 Oct 07:59:39 08:00:42 11° 175° (S) 08:01:45 not established
STRAND 1 26 Oct 08:00:07 08:04:06 23° 266° (W) 08:08:06 ?
Saudisat 1A 26 Oct 08:02:54 08:07:09 49° 308° (NW) 08:11:27 436.775 MHz
HO-68 26 Oct 08:15:54 08:18:38 12° 87° (E) 08:21:22 435.675 MHz FM
JAS-2 26 Oct 08:32:13 08:37:11 19° 304° (NW) 08:42:12 435.800 - 435.900 CW/SSB, 435.910 FM
MaSat-1 26 Oct 08:58:39 09:01:13 63° 63° (ENE) 09:03:36 437.345 MHz
SO-67 26 Oct 08:59:50 09:02:05 17° 292° (WNW) 09:04:19 435.3500 MHz FM
RS-15 26 Oct 09:27:09 09:35:38 26° 258° (WSW) 09:44:26 29.354 - 29.394 USB, Beacon 29.352 USB
Oscar 11 26 Oct 09:34:22 09:36:48 15° 91° (E) 09:39:13 145.825 FM, Beacon 2401.500 USB
HO-68 26 Oct 10:00:12 10:07:26 77° 105° (ESE) 10:14:37 435.675 MHz FM
KITSAT 1 26 Oct 10:20:56 10:24:57 15° 99° (E) 10:28:58 435.175 FM
ZACube-1 26 Oct 10:27:22 10:30:46 23° 94° (E) 10:34:06 437.345 MHz
UKube-1 26 Oct 10:28:51 10:33:11 62° 102° (ESE) 10:37:30 145.840 MHz, 145.915 MHz
Oscar 10/S400 26 Oct 10:56:25 11:12:32 17° 152° (SSE) 11:23:53 145.825 - 145.975 CW/USB, Beacon 145.810 USB
Sapphire 26 Oct 11:00:24 11:02:56 13° 37° (NE) 11:05:27 437.095 MHz 1200 baud AX-25 AFSK
Oscar 11 26 Oct 11:09:05 11:13:15 48° 287° (WNW) 11:17:23 145.825 FM, Beacon 2401.500 USB
FUNcube-1 26 Oct 11:11:06 11:15:21 73° 102° (ESE) 11:19:30 145.950 - 145.970 MHz USB
PCSat 26 Oct 11:21:57 11:25:47 19° 43° (NE) 11:29:36 145.825 MHz
HO-68 26 Oct 11:49:07 11:54:24 23° 304° (WNW) 11:59:40 435.675 MHz FM
Oscar 16 26 Oct 11:53:04 11:53:33 10° 57° (ENE) 11:54:02 437.025 USB, Beacon 2401.1428
JAS-1B 26 Oct 12:02:53 12:05:19 13° 56° (ENE) 12:07:45 435.800 - 435.900 CW/SSB
ZACube-1 26 Oct 12:03:29 12:07:10 29° 291° (WNW) 12:10:47 437.345 MHz
UKube-1 26 Oct 12:06:43 12:08:51 14° 298° (WNW) 12:10:59 145.840 MHz, 145.915 MHz
ISS 26 Oct 12:07:31 12:10:42 46° 139° (SE) 12:13:55 145.800 FM
KITSAT 1 26 Oct 12:10:58 12:19:01 78° 118° (ESE) 12:27:07 435.175 FM
SO-50 26 Oct 12:20:05 12:24:20 44° 117° (ESE) 12:28:42 436.795 FM
Oscar 19 26 Oct 12:41:45 12:46:06 29° 66° (ENE) 12:50:28 437.125 CW, 437.150 USB
Sapphire 26 Oct 12:42:01 12:47:27 66° 58° (ENE) 12:52:49 437.095 MHz 1200 baud AX-25 AFSK
FUNcube-1 26 Oct 12:50:10 12:51:06 11° 299° (WNW) 12:52:02 145.950 - 145.970 MHz USB
PCSat 26 Oct 13:04:23 13:09:50 78° 243° (WSW) 13:15:13 145.825 MHz
AO-27 26 Oct 13:04:35 13:08:21 21° 63° (ENE) 13:12:08 436.795 MHz FM
AO-Echo 26 Oct 13:09:08 13:13:11 26° 65° (ENE) 13:17:20 ?
Oscar 16 26 Oct 13:26:51 13:32:00 76° 74° (ENE) 13:37:09 437.025 USB, Beacon 2401.1428
UOSAT-12 26 Oct 13:35:00 13:38:42 24° 112° (ESE) 13:42:28 437.025 FM, 437.400 FM
ISS 26 Oct 13:44:34 13:47:31 28° 337° (NNW) 13:50:28 145.800 FM
JAS-1B 26 Oct 13:49:18 13:55:14 87° 255° (WSW) 14:00:56 435.800 - 435.900 CW/SSB
Uribyol 2 26 Oct 13:49:43 13:54:47 53° 71° (ENE) 13:59:53 436.500 FM
ITAMSAT 1 26 Oct 13:56:11 14:01:16 58° 72° (ENE) 14:06:24 435.822 SSB
SO-50 26 Oct 14:01:20 14:05:04 25° 316° (NW) 14:08:54 436.795 FM
KITSAT 1 26 Oct 14:08:24 14:15:15 29° 320° (NW) 14:22:08 435.175 FM
Oscar 19 26 Oct 14:20:37 14:25:19 35° 263° (W) 14:30:02 437.125 CW, 437.150 USB
AO-7 26 Oct 14:21:35 14:27:24 22° 51° (NE) 14:33:13 29.400 - 29.500 MHz
Gurwin Techsat 1B 26 Oct 14:26:29 14:31:40 58° 72° (ENE) 14:36:53 435.225 FM
Sapphire 26 Oct 14:26:48 14:30:17 18° 255° (WSW) 14:33:46 437.095 MHz 1200 baud AX-25 AFSK
TMSAT-1 26 Oct 14:36:35 14:41:43 53° 71° (ENE) 14:46:53 436.925 FM
AO-27 26 Oct 14:42:22 14:47:27 53° 260° (W) 14:52:35 436.795 MHz FM
AO-Echo 26 Oct 14:47:13 14:51:45 37° 263° (W) 14:56:27 ?
Saudisat 1A 26 Oct 14:50:29 14:53:41 19° 42° (NE) 14:56:53 436.775 MHz
Uosat F 26 Oct 14:57:50 15:00:03 13° 59° (ENE) 15:02:17 435.120 FM
Oscar 16 26 Oct 15:09:39 15:11:54 13° 271° (W) 15:14:09 437.025 USB, Beacon 2401.1428
UOSAT-12 26 Oct 15:14:12 15:18:37 41° 310° (NW) 15:23:07 437.025 FM, 437.400 FM
ISS 26 Oct 15:23:01 15:25:01 15° 357° (N) 15:27:02 145.800 FM
Uribyol 2 26 Oct 15:30:55 15:34:34 19° 268° (W) 15:38:14 436.500 FM
ITAMSAT 1 26 Oct 15:37:42 15:41:07 18° 268° (W) 15:44:35 435.822 SSB
Gurwin Techsat 1B 26 Oct 16:08:27 16:12:00 18° 269° (W) 16:15:34 435.225 FM
AO-7 26 Oct 16:10:49 16:19:06 89° 71° (ENE) 16:27:27 29.400 - 29.500 MHz
KITSAT 1 26 Oct 16:10:57 16:13:56 12° 348° (NNW) 16:16:56 435.175 FM
TMSAT-1 26 Oct 16:18:10 16:21:56 20° 268° (W) 16:25:44 436.925 FM
Saudisat 1A 26 Oct 16:29:15 16:33:37 58° 241° (WSW) 16:37:57 436.775 MHz
Uosat F 26 Oct 16:33:06 16:38:07 83° 256° (WSW) 16:43:12 435.120 FM
Hamsat 26 Oct 16:33:09 16:34:33 12° 63° (ENE) 16:35:57 145.90 MHz
JAS-2 26 Oct 16:57:49 17:03:33 46° 67° (ENE) 17:10:03 435.800 - 435.900 CW/SSB, 435.910 FM
ISS 26 Oct 17:00:00 17:02:38 21° 17° (NNE) 17:05:16 145.800 FM
SO-67 26 Oct 18:01:25 18:02:06 11° 65° (ENE) 18:02:47 435.3500 MHz FM
Hamsat 26 Oct 18:05:47 18:09:57 66° 259° (W) 18:14:08 145.90 MHz
AO-7 26 Oct 18:07:33 18:12:53 18° 270° (W) 18:18:15 29.400 - 29.500 MHz
KITSAT 1 26 Oct 18:09:32 18:13:42 15° 20° (NNE) 18:17:51 435.175 FM
OPAL 26 Oct 18:21:22 18:26:22 84° 106° (ESE) 18:31:18 ?
STRAND 1 26 Oct 18:31:47 18:34:33 14° 90° (E) 18:37:17 ?
ISS 26 Oct 18:36:20 18:39:41 89° 216° (SW) 18:43:01 145.800 FM
JAS-2 26 Oct 18:43:44 18:48:53 29° 269° (W) 18:54:38 435.800 - 435.900 CW/SSB, 435.910 FM
HO-68 26 Oct 18:46:59 18:49:19 12° 48° (NE) 18:51:38 435.675 MHz FM
